QPF
0.03 0.04 0.03 0.05 0.04 0.03 0.03 0.02 0.02 0.02 0.02 0.02 0.02 0.02 0.03 0.03 0.06 0.04 0.04 0.05 0.05 0.06 0.06 0.05 0.05 0.05 0.04 0.03 0.03 0.02 0.03 0.04 0.04 0.04 0.04 0.05 0.06 0.09 0.10 0.07 0.07 0.06 0.04
0.03 0.04 0.05 0.05 0.05 0.04 0.03 0.02 0.02 0.02 0.03 0.04 0.04 0.04 0.04 0.03 0.03 0.03 0.02 0.02 0.03 0.04 0.04 0.04 0.04 0.04 0.03 0.02 0.03 0.02 0.03 0.04 0.06 0.06 0.05 0.04 0.05 0.06 0.08 0.06 0.06 0.06 0.05
0.04 0.03 0.03 0.05 0.07 0.05 0.03 0.02 0.03 0.03 0.03 0.04 0.04 0.04 0.04 0.04 0.04 0.04 0.04 0.03 0.02 0.02 0.03 0.03 0.03 0.03 0.03 0.03 0.03 0.02 0.02 0.04 0.06 0.07 0.06 0.04 0.05 0.05 0.06 0.06 0.06 0.06 0.05
0.06 0.04 0.03 0.03 0.04 0.03 0.03 0.03 0.03 0.03 0.03 0.04 0.04 0.04 0.04 0.03 0.04 0.03 0.03 0.02 0.02 0.01 0.02 0.02 0.02 0.03 0.03 0.03 0.04 0.04 0.04 0.04 0.06 0.07 0.07 0.05 0.04 0.04 0.04 0.05 0.05 0.05 0.05
0.07 0.05 0.04 0.03 0.06 0.07 0.05 0.04 0.04 0.04 0.03 0.04 0.04 0.04 0.04 0.03 0.03 0.03 0.03 0.03 0.03 0.02 0.02 0.02 0.02 0.02 0.02 0.02 0.03 0.03 0.03 0.04 0.04 0.07 0.08 0.06 0.04 0.04 0.04 0.03 0.03 0.03 0.03
0.08 0.06 0.05 0.03 0.06 0.10 0.06 0.04 0.05 0.06 0.05 0.05 0.05 0.05 0.05 0.04 0.03 0.02 0.02 0.03 0.04 0.03 0.02 0.03 0.02 0.02 0.02 0.02 0.03 0.03 0.04 0.04 0.04 0.05 0.05 0.08 0.08 0.07 0.05 0.03 0.03 0.02 0.02
0.09 0.07 0.04 0.03 0.03 0.04 0.04 0.10 0.09 0.08 0.08 0.08 0.07 0.06 0.07 0.05 0.04 0.03 0.02 0.03 0.03 0.04 0.03 0.03 0.03 0.02 0.01 0.03 0.02 0.02 0.03 0.03 0.03 0.05 0.04 0.05 0.06 0.07 0.07 0.04 0.04 0.03 0.02
0.09 0.05 0.04 0.03 0.03 0.02 0.03 0.05 0.07 0.07 0.07 0.08 0.09 0.08 0.06 0.05 0.04 0.03 0.02 0.01 0.02 0.03 0.04 0.03 0.05 0.05 0.04 0.03 0.02 0.02 0.03 0.03 0.03 0.04 0.04 0.04 0.04 0.03 0.04 0.03 0.03 0.03 0.03
0.05 0.03 0.03 0.03 0.03 0.03 0.03 0.03 0.04 0.04 0.05 0.06 0.06 0.07 0.07 0.07 0.05 0.04 0.03 0.02 0.02 0.03 0.06 0.07 0.07 0.07 0.05 0.03 0.03 0.03 0.03 0.03 0.03 0.03 0.03 0.04 0.04 0.04 0.03 0.03 0.02 0.01 0.02
0.06 0.05 0.04 0.03 0.03 0.03 0.03 0.03 0.02 0.03 0.03 0.03 0.04 0.05 0.05 0.05 0.06 0.06 0.04 0.03 0.03 0.03 0.05 0.06 0.05 0.05 0.04 0.03 0.02 0.02 0.02 0.02 0.02 0.02 0.02 0.03 0.04 0.06 0.06 0.06 0.05 0.03 0.02
0.07 0.05 0.04 0.04 0.04 0.05 0.05 0.05 0.04 0.03 0.03 0.03 0.03 0.04 0.04 0.05 0.05 0.06 0.05 0.04 0.04 0.04 0.05 0.06 0.05 0.03 0.03 0.02 0.02 0.02 0.01 0.01 0.01 0.01 0.01 0.02 0.03 0.04 0.05 0.07 0.06 0.04 0.03
0.09 0.07 0.06 0.04 0.04 0.05 0.05 0.05 0.05 0.04 0.04 0.04 0.04 0.05 0.05 0.05 0.04 0.04 0.05 0.04 0.03 0.04 0.05 0.05 0.06 0.04 0.03 0.02 0.02 0.02 0.01 0.01 0.01 0.01 0.01 0.02 0.02 0.02 0.03 0.03 0.04 0.04 0.03
0.09 0.07 0.06 0.06 0.05 0.07 0.09 0.07 0.06 0.05 0.05 0.05 0.05 0.05 0.05 0.05 0.05 0.06 0.06 0.05 0.03 0.03 0.04 0.05 0.04 0.04 0.03 0.02 0.02 0.01 0.01 0.01 0.01 0.01 0.01 0.01 0.02 0.03 0.03 0.03 0.03 0.03 0.03
0.07 0.06 0.06 0.05 0.05 0.06 0.07 0.07 0.06 0.06 0.06 0.06 0.06 0.06 0.06 0.06 0.05 0.06 0.07 0.07 0.05 0.04 0.03 0.03 0.03 0.03 0.02 0.01 0.02 0.02 0.02 0.02 0.01 0.02 0.02 0.02 0.02 0.02 0.03 0.03 0.03 0.03 0.04
0.06 0.05 0.04 0.04 0.04 0.05 0.05 0.06 0.06 0.06 0.05 0.04 0.05 0.06 0.06 0.06 0.07 0.06 0.05 0.05 0.06 0.04 0.02 0.01 0.01 0.02 0.02 0.02 0.02 0.03 0.03 0.02 0.01 0.02 0.02 0.02 0.02 0.02 0.02 0.03 0.03 0.03 0.04
0.07 0.05 0.05 0.05 0.04 0.03 0.03 0.04 0.05 0.05 0.04 0.04 0.04 0.07 0.08 0.07 0.07 0.06 0.05 0.06 0.06 0.05 0.03 0.01 0.01 0.01 0.02 0.02 0.02 0.02 0.03 0.02 0.01 0.01 0.01 0.01 0.01 0.02 0.02 0.03 0.03 0.03 0.04
0.06 0.05 0.04 0.03 0.02 0.02 0.02 0.02 0.03 0.04 0.04 0.05 0.05 0.06 0.07 0.08 0.07 0.05 0.05 0.05 0.05 0.05 0.03 0.02 0.01 0.02 0.02 0.02 0.02 0.03 0.02 0.02 0.01 0.01 0.01 0.01 0.01 0.01 0.01 0.04 0.05 0.03 0.03
0.03 0.02 0.02 0.02 0.02 0.01 0.01 0.02 0.03 0.04 0.05 0.05 0.06 0.06 0.06 0.07 0.07 0.06 0.05 0.04 0.04 0.04 0.04 0.03 0.03 0.02 0.02 0.01 0.02 0.03 0.03 0.03 0.02 0.01 0.01 0.01 0.00 0.00 0.01 0.02 0.06 0.05 0.03
0.02 0.01 0.01 0.01 0.02 0.02 0.03 0.03 0.03 0.05 0.05 0.05 0.05 0.06 0.06 0.05 0.06 0.04 0.04 0.03 0.03 0.03 0.03 0.02 0.02 0.02 0.02 0.02 0.02 0.02 0.02 0.03 0.02 0.01 0.01 0.01 0.01 0.01 0.01 0.01 0.05 0.07 0.05
0.02 0.01 0.01 0.01 0.02 0.03 0.03 0.03 0.03 0.04 0.05 0.04 0.04 0.04 0.04 0.04 0.04 0.04 0.03 0.02 0.03 0.02 0.03 0.03 0.02 0.02 0.02 0.02 0.02 0.02 0.02 0.02 0.03 0.02 0.01 0.00 0.00 0.01 0.01 0.01 0.03 0.07 0.06
0.03 0.02 0.02 0.01 0.01 0.02 0.02 0.02 0.03 0.04 0.04 0.04 0.03 0.03 0.03 0.03 0.03 0.02 0.02 0.02 0.02 0.02 0.02 0.02 0.02 0.03 0.03 0.02 0.02 0.02 0.02 0.02 0.03 0.02 0.02 0.01 0.01 0.01 0.01 0.01 0.02 0.04 0.05
0.03 0.03 0.03 0.02 0.01 0.01 0.02 0.03 0.03 0.04 0.04 0.04 0.04 0.04 0.03 0.03 0.03 0.03 0.02 0.02 0.02 0.02 0.02 0.02 0.03 0.04 0.03 0.02 0.02 0.02 0.02 0.03 0.03 0.03 0.02 0.01 0.01 0.01 0.01 0.02 0.03 0.03 0.04
0.03 0.03 0.03 0.03 0.02 0.01 0.02 0.02 0.03 0.03 0.03 0.03 0.03 0.04 0.04 0.04 0.03 0.03 0.02 0.02 0.02 0.02 0.01 0.02 0.03 0.03 0.03 0.02 0.02 0.02 0.02 0.02 0.03 0.04 0.02 0.01 0.01 0.01 0.01 0.03 0.05 0.06 0.05
0.02 0.01 0.01 0.01 0.01 0.01 0.02 0.02 0.02 0.02 0.02 0.02 0.02 0.03 0.04 0.04 0.04 0.03 0.03 0.02 0.01 0.01 0.01 0.01 0.01 0.01 0.02 0.02 0.03 0.03 0.02 0.02 0.02 0.03 0.02 0.01 0.01 0.01 0.02 0.04 0.06 0.09 0.09
0.02 0.01 0.01 0.01 0.01 0.02 0.02 0.02 0.02 0.01 0.01 0.02 0.02 0.02 0.03 0.03 0.03 0.03 0.02 0.02 0.01 0.01 0.02 0.02 0.02 0.02 0.02 0.02 0.03 0.04 0.03 0.02 0.02 0.02 0.02 0.02 0.01 0.01 0.02 0.04 0.06 0.08 0.09
0.02 0.01 0.01 0.01 0.02 0.02 0.01 0.01 0.01 0.02 0.02 0.02 0.02 0.02 0.02 0.02 0.02 0.02 0.01 0.01 0.01 0.01 0.03 0.03 0.02 0.01 0.02 0.02 0.03 0.04 0.04 0.03 0.02 0.02 0.02 0.03 0.02 0.02 0.03 0.05 0.06 0.08 0.08
MSLP
1011.59 1011.90 1012.15 1012.38 1012.63 1012.92 1013.25 1013.63 1014.01 1014.36 1014.64 1014.85 1014.96 1015.01 1015.01 1014.98 1014.94 1014.91 1014.88 1014.86 1014.82 1014.78 1014.73 1014.67 1014.63 1014.60 1014.60 1014.63 1014.66 1014.69 1014.71 1014.70 1014.67 1014.62 1014.57 1014.54 1014.53 1014.55 1014.59 1014.67 1014.75 1014.85 1014.97
1011.50 1011.76 1011.97 1012.19 1012.46 1012.78 1013.18 1013.61 1014.07 1014.49 1014.85 1015.13 1015.30 1015.38 1015.39 1015.36 1015.29 1015.22 1015.14 1015.07 1014.99 1014.92 1014.86 1014.80 1014.75 1014.72 1014.70 1014.69 1014.67 1014.64 1014.59 1014.53 1014.45 1014.37 1014.31 1014.28 1014.29 1014.32 1014.38 1014.45 1014.53 1014.61 1014.69
1011.43 1011.64 1011.83 1012.06 1012.35 1012.73 1013.18 1013.68 1014.20 1014.70 1015.13 1015.47 1015.70 1015.83 1015.88 1015.85 1015.78 1015.67 1015.56 1015.45 1015.35 1015.26 1015.18 1015.11 1015.06 1015.02 1014.98 1014.93 1014.87 1014.79 1014.69 1014.57 1014.45 1014.35 1014.28 1014.25 1014.26 1014.30 1014.35 1014.41 1014.46 1014.49 1014.53
1011.42 1011.58 1011.77 1012.03 1012.36 1012.78 1013.28 1013.83 1014.40 1014.95 1015.43 1015.82 1016.10 1016.29 1016.37 1016.37 1016.31 1016.21 1016.09 1015.97 1015.85 1015.74 1015.65 1015.58 1015.53 1015.48 1015.43 1015.36 1015.27 1015.15 1015.01 1014.86 1014.71 1014.59 1014.51 1014.47 1014.47 1014.49 1014.53 1014.55 1014.55 1014.52 1014.48
1011.49 1011.64 1011.84 1012.12 1012.49 1012.95 1013.48 1014.05 1014.64 1015.20 1015.70 1016.12 1016.44 1016.67 1016.81 1016.86 1016.84 1016.77 1016.66 1016.55 1016.43 1016.32 1016.24 1016.17 1016.12 1016.08 1016.03 1015.95 1015.84 1015.70 1015.54 1015.36 1015.20 1015.06 1014.96 1014.91 1014.89 1014.89 1014.88 1014.85 1014.79 1014.69 1014.56
1011.70 1011.85 1012.07 1012.38 1012.78 1013.25 1013.78 1014.34 1014.90 1015.43 1015.92 1016.34 1016.69 1016.96 1017.15 1017.26 1017.31 1017.29 1017.23 1017.14 1017.04 1016.95 1016.88 1016.82 1016.78 1016.75 1016.70 1016.63 1016.52 1016.38 1016.21 1016.02 1015.84 1015.69 1015.58 1015.50 1015.46 1015.42 1015.37 1015.28 1015.15 1014.97 1014.76
1012.09 1012.25 1012.49 1012.82 1013.23 1013.69 1014.19 1014.69 1015.19 1015.66 1016.10 1016.50 1016.86 1017.16 1017.41 1017.59 1017.71 1017.76 1017.75 1017.71 1017.65 1017.58 1017.52 1017.48 1017.45 1017.42 1017.39 1017.32 1017.22 1017.08 1016.91 1016.73 1016.54 1016.38 1016.25 1016.15 1016.07 1016.00 1015.90 1015.77 1015.58 1015.33 1015.06
1012.68 1012.84 1013.11 1013.45 1013.84 1014.26 1014.70 1015.12 1015.52 1015.91 1016.28 1016.65 1016.99 1017.32 1017.62 1017.87 1018.07 1018.19 1018.25 1018.26 1018.23 1018.18 1018.13 1018.09 1018.06 1018.04 1018.00 1017.95 1017.85 1017.72 1017.55 1017.37 1017.18 1017.01 1016.86 1016.74 1016.64 1016.53 1016.41 1016.23 1016.00 1015.72 1015.39
1013.45 1013.64 1013.90 1014.23 1014.60 1014.96 1015.31 1015.64 1015.94 1016.23 1016.52 1016.84 1017.17 1017.52 1017.85 1018.17 1018.42 1018.61 1018.73 1018.77 1018.76 1018.72 1018.67 1018.62 1018.58 1018.54 1018.50 1018.43 1018.34 1018.20 1018.03 1017.85 1017.66 1017.48 1017.32 1017.18 1017.06 1016.94 1016.79 1016.60 1016.36 1016.06 1015.72
1014.36 1014.56 1014.83 1015.14 1015.46 1015.76 1016.03 1016.25 1016.45 1016.65 1016.87 1017.14 1017.45 1017.80 1018.17 1018.52 1018.83 1019.06 1019.21 1019.27 1019.27 1019.22 1019.14 1019.07 1018.99 1018.92 1018.85 1018.76 1018.64 1018.49 1018.31 1018.11 1017.91 1017.72 1017.56 1017.41 1017.28 1017.16 1017.00 1016.82 1016.58 1016.30 1015.98
1015.32 1015.53 1015.80 1016.09 1016.37 1016.61 1016.80 1016.94 1017.06 1017.18 1017.35 1017.58 1017.87 1018.22 1018.60 1018.97 1019.30 1019.55 1019.71 1019.77 1019.75 1019.67 1019.55 1019.43 1019.31 1019.19 1019.06 1018.93 1018.77 1018.59 1018.38 1018.16 1017.95 1017.75 1017.57 1017.43 1017.30 1017.17 1017.04 1016.86 1016.65 1016.40 1016.11
1016.24 1016.46 1016.73 1017.00 1017.24 1017.44 1017.58 1017.67 1017.73 1017.81 1017.94 1018.14 1018.42 1018.76 1019.14 1019.51 1019.83 1020.07 1020.21 1020.25 1020.20 1020.08 1019.92 1019.74 1019.56 1019.38 1019.19 1019.00 1018.78 1018.55 1018.30 1018.05 1017.81 1017.60 1017.41 1017.26 1017.14 1017.02 1016.90 1016.75 1016.57 1016.34 1016.09
1017.03 1017.26 1017.53 1017.79 1018.01 1018.19 1018.30 1018.37 1018.42 1018.49 1018.60 1018.79 1019.05 1019.38 1019.73 1020.08 1020.37 1020.58 1020.69 1020.69 1020.61 1020.45 1020.24 1020.02 1019.78 1019.54 1019.29 1019.03 1018.75 1018.46 1018.16 1017.86 1017.59 1017.34 1017.14 1016.98 1016.86 1016.75 1016.63 1016.50 1016.33 1016.14 1015.91
1017.64 1017.89 1018.15 1018.41 1018.63 1018.81 1018.93 1019.01 1019.07 1019.15 1019.27 1019.45 1019.70 1020.00 1020.32 1020.62 1020.88 1021.04 1021.11 1021.08 1020.96 1020.78 1020.55 1020.28 1020.01 1019.72 1019.41 1019.09 1018.74 1018.39 1018.02 1017.67 1017.35 1017.07 1016.84 1016.67 1016.53 1016.41 1016.29 1016.16 1016.00 1015.81 1015.59
1018.08 1018.33 1018.59 1018.85 1019.09 1019.29 1019.43 1019.55 1019.64 1019.74 1019.88 1020.06 1020.29 1020.56 1020.83 1021.09 1021.28 1021.41 1021.44 1021.38 1021.25 1021.06 1020.82 1020.56 1020.26 1019.94 1019.59 1019.22 1018.81 1018.39 1017.96 1017.54 1017.16 1016.84 1016.57 1016.36 1016.20 1016.05 1015.92 1015.77 1015.59 1015.38 1015.15
1018.39 1018.64 1018.90 1019.17 1019.43 1019.65 1019.83 1019.98 1020.11 1020.24 1020.39 1020.57 1020.78 1021.01 1021.23 1021.42 1021.56 1021.64 1021.64 1021.58 1021.45 1021.28 1021.07 1020.82 1020.53 1020.21 1019.84 1019.42 1018.96 1018.47 1017.98 1017.50 1017.06 1016.68 1016.36 1016.11 1015.90 1015.71 1015.54 1015.35 1015.13 1014.90 1014.64
1018.65 1018.89 1019.16 1019.43 1019.70 1019.94 1020.15 1020.33 1020.49 1020.64 1020.80 1020.97 1021.15 1021.33 1021.49 1021.62 1021.71 1021.74 1021.73 1021.67 1021.57 1021.43 1021.26 1021.06 1020.80 1020.49 1020.11 1019.67 1019.17 1018.63 1018.07 1017.53 1017.03 1016.58 1016.20 1015.89 1015.63 1015.39 1015.16 1014.92 1014.65 1014.37 1014.08
1018.95 1019.19 1019.45 1019.72 1019.98 1020.23 1020.45 1020.64 1020.82 1020.98 1021.13 1021.28 1021.41 1021.54 1021.64 1021.71 1021.75 1021.75 1021.73 1021.68 1021.60 1021.51 1021.40 1021.24 1021.02 1020.74 1020.36 1019.91 1019.38 1018.79 1018.18 1017.58 1017.01 1016.51 1016.07 1015.69 1015.37 1015.07 1014.78 1014.47 1014.16 1013.83 1013.50
1019.35 1019.58 1019.83 1020.08 1020.33 1020.56 1020.77 1020.96 1021.13 1021.28 1021.41 1021.52 1021.61 1021.68 1021.72 1021.74 1021.73 1021.70 1021.66 1021.62 1021.58 1021.53 1021.45 1021.34 1021.16 1020.89 1020.53 1020.06 1019.51 1018.89 1018.24 1017.59 1016.97 1016.41 1015.91 1015.48 1015.09 1014.73 1014.38 1014.01 1013.64 1013.26 1012.90
1019.83 1020.06 1020.30 1020.53 1020.75 1020.95 1021.14 1021.30 1021.44 1021.56 1021.66 1021.73 1021.78 1021.79 1021.78 1021.75 1021.69 1021.64 1021.58 1021.54 1021.51 1021.47 1021.42 1021.33 1021.17 1020.92 1020.56 1020.09 1019.52 1018.88 1018.20 1017.51 1016.86 1016.26 1015.71 1015.23 1014.79 1014.37 1013.96 1013.54 1013.11 1012.69 1012.29
1020.37 1020.60 1020.82 1021.02 1021.21 1021.37 1021.52 1021.64 1021.75 1021.83 1021.89 1021.93 1021.93 1021.91 1021.85 1021.77 1021.68 1021.59 1021.51 1021.45 1021.40 1021.36 1021.31 1021.21 1021.05 1020.79 1020.42 1019.95 1019.37 1018.73 1018.04 1017.34 1016.67 1016.04 1015.47 1014.95 1014.47 1014.00 1013.53 1013.06 1012.59 1012.13 1011.70
1020.86 1021.10 1021.31 1021.49 1021.64 1021.76 1021.86 1021.94 1022.00 1022.05 1022.08 1022.09 1022.07 1022.02 1021.93 1021.83 1021.70 1021.58 1021.46 1021.36 1021.28 1021.20 1021.11 1020.98 1020.79 1020.51 1020.14 1019.65 1019.08 1018.44 1017.76 1017.08 1016.41 1015.79 1015.21 1014.67 1014.16 1013.65 1013.14 1012.63 1012.11 1011.60 1011.14
1021.22 1021.48 1021.68 1021.84 1021.96 1022.04 1022.10 1022.15 1022.18 1022.20 1022.21 1022.21 1022.17 1022.11 1022.01 1021.89 1021.74 1021.58 1021.42 1021.27 1021.13 1021.00 1020.85 1020.67 1020.43 1020.12 1019.72 1019.24 1018.68 1018.06 1017.42 1016.77 1016.14 1015.53 1014.97 1014.43 1013.90 1013.37 1012.82 1012.26 1011.70 1011.15 1010.64
1021.39 1021.66 1021.87 1022.02 1022.11 1022.17 1022.20 1022.21 1022.22 1022.23 1022.24 1022.24 1022.22 1022.16 1022.07 1021.94 1021.77 1021.58 1021.38 1021.18 1020.97 1020.76 1020.54 1020.30 1020.01 1019.66 1019.25 1018.77 1018.24 1017.66 1017.06 1016.46 1015.88 1015.33 1014.79 1014.27 1013.74 1013.19 1012.62 1012.02 1011.40 1010.80 1010.24
1021.33 1021.63 1021.85 1022.00 1022.08 1022.12 1022.14 1022.14 1022.14 1022.15 1022.17 1022.19 1022.18 1022.15 1022.07 1021.94 1021.77 1021.56 1021.32 1021.06 1020.79 1020.51 1020.22 1019.91 1019.58 1019.20 1018.78 1018.32 1017.81 1017.29 1016.75 1016.22 1015.70 1015.20 1014.71 1014.21 1013.69 1013.14 1012.55 1011.91 1011.25 1010.59 1009.97
1021.10 1021.42 1021.65 1021.81 1021.90 1021.93 1021.95 1021.95 1021.96 1021.98 1022.02 1022.06 1022.08 1022.07 1022.01 1021.89 1021.72 1021.50 1021.23 1020.93 1020.60 1020.27 1019.92 1019.57 1019.19 1018.80 1018.38 1017.94 1017.48 1017.00 1016.53 1016.07 1015.61 1015.17 1014.72 1014.26 1013.76 1013.21 1012.61 1011.95 1011.25 1010.54 1009.86
Thickness
5737 5736 5735 5734 5733 5733 5732 5731 5730 5729 5728 5728 5727 5726 5725 5724 5722 5720 5719 5718 5717 5716 5715 5714 5712 5711 5710 5709 5708 5708 5707 5707 5706 5705 5704 5704 5703 5703 5702 5702 5701 5700 5699
5734 5732 5731 5730 5730 5729 5729 5728 5727 5725 5724 5724 5723 5723 5722 5721 5719 5717 5716 5714 5713 5712 5711 5710 5709 5708 5706 5705 5704 5704 5703 5703 5702 5702 5701 5701 5700 5699 5698 5698 5697 5697 5696
5731 5729 5728 5727 5727 5727 5726 5725 5724 5722 5721 5720 5719 5719 5718 5717 5715 5714 5712 5711 5709 5708 5707 5706 5705 5704 5703 5702 5701 5700 5699 5699 5698 5698 5697 5697 5696 5695 5694 5694 5693 5693 5693
5728 5726 5725 5725 5724 5723 5722 5721 5719 5718 5716 5716 5714 5714 5713 5712 5711 5710 5708 5707 5705 5703 5702 5701 5701 5700 5699 5698 5697 5696 5695 5695 5694 5694 5693 5692 5691 5690 5689 5689 5689 5688 5688
5726 5724 5722 5721 5721 5719 5718 5717 5715 5714 5711 5710 5710 5709 5708 5707 5707 5706 5704 5702 5701 5699 5698 5697 5696 5696 5695 5694 5694 5693 5692 5691 5690 5689 5689 5688 5687 5686 5685 5684 5683 5683 5683
5723 5721 5719 5718 5717 5714 5713 5712 5711 5710 5708 5706 5706 5704 5703 5703 5702 5701 5700 5698 5696 5695 5693 5692 5691 5691 5690 5690 5689 5688 5687 5687 5686 5685 5684 5683 5682 5681 5680 5679 5678 5678 5678
5719 5718 5716 5714 5712 5710 5710 5709 5707 5705 5703 5702 5698 5695 5696 5697 5696 5697 5696 5694 5692 5691 5689 5688 5687 5686 5685 5685 5685 5684 5683 5682 5681 5680 5679 5678 5677 5676 5675 5674 5673 5673 5673
5717 5715 5713 5710 5709 5707 5705 5704 5703 5700 5699 5698 5693 5687 5684 5685 5689 5693 5691 5690 5688 5687 5685 5684 5682 5681 5680 5680 5680 5679 5679 5678 5676 5675 5675 5674 5673 5671 5670 5669 5668 5668 5668
5714 5712 5710 5707 5705 5703 5701 5700 5699 5697 5693 5692 5692 5686 5679 5676 5679 5684 5686 5686 5684 5682 5681 5680 5679 5678 5676 5675 5675 5674 5673 5673 5672 5671 5670 5669 5668 5667 5666 5665 5664 5663 5663
5710 5709 5706 5704 5702 5700 5698 5697 5696 5694 5691 5687 5687 5686 5684 5680 5674 5673 5678 5680 5680 5678 5677 5676 5675 5674 5673 5672 5670 5670 5669 5668 5667 5666 5665 5665 5664 5662 5661 5660 5659 5659 5658
5705 5704 5703 5700 5698 5697 5695 5694 5692 5690 5688 5686 5683 5681 5679 5677 5675 5670 5668 5671 5672 5674 5673 5672 5671 5671 5669 5668 5666 5666 5665 5665 5663 5662 5661 5660 5659 5657 5656 5655 5654 5654 5653
5699 5699 5698 5696 5695 5694 5692 5691 5689 5687 5685 5683 5681 5679 5676 5672 5670 5667 5664 5664 5664 5667 5669 5669 5668 5667 5666 5664 5663 5662 5662 5661 5660 5658 5657 5655 5654 5652 5651 5650 5649 5649 5648
5694 5694 5694 5692 5691 5690 5689 5688 5686 5684 5683 5681 5679 5677 5675 5672 5670 5667 5663 5660 5660 5661 5663 5664 5664 5664 5662 5661 5660 5659 5658 5657 5656 5655 5653 5651 5649 5648 5646 5645 5644 5644 5643
5691 5691 5689 5689 5688 5687 5686 5684 5682 5681 5680 5678 5676 5674 5672 5670 5668 5666 5662 5658 5655 5654 5655 5657 5660 5660 5659 5658 5657 5655 5654 5653 5653 5651 5650 5648 5645 5644 5642 5641 5639 5639 5638
5688 5687 5686 5685 5684 5683 5682 5680 5678 5676 5675 5674 5672 5670 5668 5667 5665 5664 5662 5659 5654 5648 5648 5652 5653 5656 5655 5654 5654 5652 5651 5650 5649 5647 5646 5643 5641 5640 5638 5636 5635 5634 5633
5685 5684 5682 5682 5681 5679 5678 5676 5674 5673 5671 5669 5668 5666 5665 5663 5661 5660 5658 5657 5655 5650 5646 5649 5649 5650 5651 5650 5649 5648 5647 5646 5645 5643 5642 5639 5637 5636 5634 5632 5631 5630 5629
5681 5680 5678 5677 5676 5675 5674 5672 5670 5669 5667 5665 5663 5662 5661 5660 5657 5655 5654 5652 5650 5648 5644 5645 5645 5646 5645 5644 5644 5643 5642 5641 5640 5639 5637 5636 5634 5632 5630 5628 5627 5625 5624
5677 5676 5674 5673 5671 5671 5670 5668 5666 5665 5663 5661 5660 5658 5656 5655 5652 5650 5649 5647 5646 5644 5641 5639 5639 5640 5640 5640 5638 5637 5637 5636 5634 5634 5632 5631 5629 5628 5626 5624 5622 5621 5619
5672 5671 5670 5668 5667 5667 5666 5665 5663 5661 5660 5658 5656 5654 5652 5650 5647 5645 5643 5642 5641 5640 5638 5635 5633 5633 5633 5634 5632 5631 5631 5630 5630 5629 5628 5627 5625 5623 5622 5620 5618 5616 5614
5667 5666 5665 5664 5664 5663 5662 5661 5659 5657 5656 5654 5653 5651 5649 5647 5644 5642 5640 5638 5637 5634 5632 5629 5627 5626 5626 5627 5625 5623 5622 5622 5622 5624 5623 5622 5621 5619 5617 5615 5613 5611 5609
5663 5661 5660 5660 5659 5659 5658 5657 5655 5654 5651 5649 5648 5647 5646 5645 5643 5640 5638 5635 5633 5630 5626 5623 5621 5619 5619 5619 5618 5617 5615 5615 5616 5618 5617 5617 5616 5614 5612 5610 5608 5606 5604
5658 5657 5656 5655 5655 5656 5655 5653 5652 5649 5648 5646 5644 5643 5642 5641 5640 5638 5636 5634 5631 5627 5622 5619 5617 5615 5615 5615 5613 5612 5609 5607 5607 5612 5610 5610 5610 5608 5607 5605 5604 5601 5599
5653 5652 5651 5651 5650 5651 5651 5650 5648 5646 5644 5642 5640 5638 5638 5638 5635 5633 5631 5629 5627 5625 5623 5619 5615 5613 5612 5612 5610 5608 5605 5603 5602 5606 5603 5603 5603 5602 5602 5600 5598 5595 5593
5648 5647 5647 5647 5646 5647 5646 5646 5644 5642 5640 5638 5637 5636 5634 5633 5632 5629 5626 5623 5622 5620 5619 5617 5615 5613 5612 5610 5608 5606 5603 5601 5600 5601 5599 5596 5597 5596 5597 5594 5592 5589 5587
5643 5643 5643 5643 5642 5643 5643 5642 5640 5637 5635 5634 5634 5633 5631 5629 5628 5625 5621 5618 5617 5616 5617 5615 5614 5611 5609 5607 5605 5601 5597 5594 5593 5594 5594 5591 5591 5589 5588 5587 5586 5583 5581
5639 5640 5639 5639 5639 5638 5639 5638 5636 5633 5630 5629 5628 5628 5627 5625 5623 5621 5617 5614 5612 5612 5611 5610 5608 5607 5605 5604 5602 5599 5595 5591 5588 5587 5590 5587 5585 5582 5580 5581 5579 5577 5575